Muskegon, MI

7:55 PM EDT on October 14, 2019 (GMT -0400)
Muskegon County

Weather History for KMKG - August, 2019

Change the Weather History Date:

Friday, August 23, 2019

  Actual Average Record
Temperature  
Mean Temperature 66 °F 69 °F  
Max Temperature 78 °F 78 °F 93 °F (1905)
Min Temperature 54 °F 60 °F 44 °F (1951)
Degree Days  
Heating Degree Days 0 1  
Month to date heating degree days 0 6  
Since 1 June heating degree days 58 83  
Since 1 July heating degree days 1 17  
Cooling Degree Days 1 5  
Month to date cooling degree days 155 132  
Year to date cooling degree days 526 468  
Since 1 June cooling degree days 523 439  
Growing Degree Days 16 (Base 50)    
Moisture  
Dew Point 48 °F    
Average Humidity 56    
Maximum Humidity 83    
Minimum Humidity 35    
Precipitation  
Precipitation 0.00 in 0.11 in 1.86 in (1975)
Month to date precipitation 1.33 2.49  
Year to date precipitation 26.30 19.68  
Snow  
Snow 0.00 in 0.00 in - ()
Month to date snowfall 0.0 0.0  
Since 1 June snowfall 0.0 0.0  
Since 1 July snowfall 0.0 0.0  
Snow Depth 0.00 in    
Sea Level Pressure  
Sea Level Pressure 30.20 in    
Wind  
Wind Speed 6 mph ()    
Max Wind Speed 14 mph    
Max Gust Speed 19 mph    
Visibility 10.0 miles    
Events      
T = Trace of Precipitation, MM = Missing Value Source: Averaged Metar Reports

Daily Weather History Graph

Daily Weather History Graph

Search for Another Location

Airport or City:

Astronomy

Aug. 23, 2019 Rise Set
Actual Time 6:59 AM EDT 8:35 PM EDT
Civil Twilight 6:29 AM EDT 9:05 PM EDT
Nautical Twilight 5:52 AM EDT 9:41 PM EDT
Astronomical Twilight 5:13 AM EDT 10:20 PM EDT
Moon 12:15 AM EDT (8/23) 2:47 PM EDT (8/23)
Length of Visible Light 14h 36m
Length of Day
13h 36m
Waning Gibbous, 50% of the Moon is Illuminated
Aug 23
Waning Gibbous
Aug 30
New
Sep 5
First Quarter
Sep 14
Full
Sep 21
Last Quarter

Hourly Weather History & Observations

Time (EDT) Temp. Dew Point Humidity Pressure Visibility Wind Dir Wind Speed Gust Speed Precip Events Conditions
12:55 AM 62.1 °F 46.9 °F 58% 30.12 in 10.0 mi NNE 5.8 mph - N/A   Clear
1:55 AM 60.1 °F 46.9 °F 62% 30.13 in 10.0 mi NE 5.8 mph - N/A   Clear
2:55 AM 57.0 °F 46.9 °F 69% 30.14 in 10.0 mi East 4.6 mph - N/A   Clear
3:55 AM 55.9 °F 46.9 °F 72% 30.15 in 10.0 mi ENE 3.5 mph - N/A   Clear
4:55 AM 54.0 °F 46.9 °F 77% 30.17 in 10.0 mi NNE 4.6 mph - N/A   Clear
5:55 AM 54.0 °F 48.0 °F 80% 30.18 in 10.0 mi North 6.9 mph - N/A   Clear
6:55 AM 55.0 °F 48.0 °F 77% 30.18 in 10.0 mi NNE 5.8 mph - N/A   Partly Cloudy
7:55 AM 57.0 °F 48.0 °F 72% 30.19 in 10.0 mi NNE 8.1 mph - N/A   Partly Cloudy
8:55 AM 61.0 °F 48.9 °F 64% 30.22 in 10.0 mi NNE 6.9 mph - N/A   Partly Cloudy
9:55 AM 66.9 °F 50.0 °F 54% 30.22 in 10.0 mi NNE 5.8 mph - N/A   Scattered Clouds
10:55 AM 71.1 °F 48.0 °F 44% 30.23 in 10.0 mi NE 9.2 mph - N/A   Scattered Clouds
11:55 AM 73.0 °F 46.9 °F 39% 30.24 in 10.0 mi North 10.4 mph - N/A   Scattered Clouds
12:55 PM 73.9 °F 46.9 °F 38% 30.22 in 10.0 mi North 11.5 mph - N/A   Scattered Clouds
1:55 PM 75.0 °F 48.0 °F 38% 30.22 in 10.0 mi Variable 6.9 mph 16.1 mph N/A   Scattered Clouds
2:55 PM 75.9 °F 48.0 °F 37% 30.21 in 10.0 mi NNE 9.2 mph - N/A   Scattered Clouds
3:55 PM 75.9 °F 46.9 °F 36% 30.20 in 10.0 mi NE 6.9 mph - N/A   Scattered Clouds
4:55 PM 75.9 °F 48.0 °F 37% 30.20 in 10.0 mi ENE 6.9 mph - N/A   Scattered Clouds
5:55 PM 75.9 °F 46.0 °F 35% 30.20 in 10.0 mi East 9.2 mph - N/A   Scattered Clouds
6:55 PM 73.0 °F 44.1 °F 35% 30.21 in 10.0 mi NE 8.1 mph - N/A   Scattered Clouds
7:55 PM 72.0 °F 46.9 °F 41% 30.20 in 10.0 mi NE 3.5 mph - N/A   Partly Cloudy
8:55 PM 66.9 °F 55.0 °F 66% 30.21 in 10.0 mi NNW 8.1 mph - N/A   Partly Cloudy
9:55 PM 66.9 °F 54.0 °F 63% 30.23 in 10.0 mi North 8.1 mph - N/A   Partly Cloudy
10:55 PM 64.0 °F 54.0 °F 70% 30.24 in 10.0 mi NNE 8.1 mph - N/A   Partly Cloudy
11:55 PM 63.0 °F 53.1 °F 70% 30.25 in 10.0 mi NNE 6.9 mph - N/A   Clear